This is the latest recevied weather packets stored in our database for station/object N1YZ. If no packets are shown the sender has not sent any weather packets the latest 10 day(s).
| Time | Temp. | Humidity | Pressure | Rain* | Wind** | Luminosity | Snow |
|---|---|---|---|---|---|---|---|
| 1777940473 | 21.67° C | 50% | 1032.7 hPa | 0 mm | - | 3 W/m² | - |
| 1777940169 | 21.67° C | 49% | 1032.4 hPa | 0 mm | - | 4 W/m² | - |
| 1777939867 | 22.22° C | 49% | 1032.3 hPa | 0 mm | - | 5 W/m² | - |
| 1777939564 | 22.22° C | 48% | 1032.5 hPa | 0 mm | - | 7 W/m² | - |
| 1777939262 | 22.78° C | 47% | 1032.4 hPa | 0 mm | - | 8 W/m² | - |
| 1777938958 | 22.78° C | 48% | 1032.5 hPa | 0 mm | - | 9 W/m² | - |
| 1777938655 | 22.78° C | 47% | 1032.4 hPa | 0 mm | - | 10 W/m² | - |
| 1777938351 | 22.78° C | 47% | 1032.5 hPa | 0 mm | - | 12 W/m² | - |
| 1777938049 | 23.33° C | 46% | 1032.5 hPa | 0 mm | - | 12 W/m² | - |
| 1777937744 | 23.33° C | 46% | 1032.8 hPa | 0 mm | - | 13 W/m² | - |
| 1777937441 | 23.33° C | 46% | 1032.7 hPa | 0 mm | - | 14 W/m² | - |
| 1777937138 | 23.33° C | 46% | 1032.7 hPa | 0 mm | - | 15 W/m² | - |
| 1777936836 | 23.33° C | 46% | 1032.8 hPa | 0 mm | - | 16 W/m² | - |
| 1777936532 | 23.33° C | 46% | 1032.5 hPa | 0 mm | - | 17 W/m² | - |
| 1777936228 | 23.89° C | 45% | 1032.5 hPa | 0 mm | - | 18 W/m² | - |
| 1777935924 | 23.89° C | 43% | 1032.8 hPa | 0 mm | - | 18 W/m² | - |
| 1777935624 | 23.89° C | 44% | 1032.8 hPa | 0 mm | - | 19 W/m² | - |
| 1777935320 | 23.89° C | 44% | 1032.8 hPa | 0 mm | - | 20 W/m² | - |
| 1777935017 | 23.89° C | 43% | 1032.8 hPa | 0 mm | - | 21 W/m² | - |
| 1777934714 | 23.89° C | 45% | 1032.9 hPa | 0 mm | - | 21 W/m² | - |
| 1777934411 | 24.44° C | 45% | 1032.9 hPa | 0 mm | - | 22 W/m² | - |
| 1777934107 | 24.44° C | 43% | 1033 hPa | 0 mm | - | 24 W/m² | - |
| 1777933803 | 24.44° C | 43% | 1032.8 hPa | 0 mm | - | 26 W/m² | - |
| 1777933500 | 24.44° C | 45% | 1033 hPa | 0 mm | - | 27 W/m² | - |
| 1777933198 | 25° C | 42% | 1032.9 hPa | 0 mm | - | 29 W/m² | - |
* Rain latest hour (hover to see other rain measurements)
** Current wind speed in m/s (hover to see current wind gust speed)